Regional Weather Roundup
Issued by NWS

Home | Current Version | Previous Version | Text Only | Print | Product List | Glossary Off
Versions: 1 2 3 4 5 6 7 8 9 10 11 12 13 14 15 16 17 18 19 20 21 22 23 24 25 26 27 28 29 30 31 32 33 34 35 36 37 38 39 40 41 42 43 44 45 46 47 48 49 50

000
ASUS43 KIND 090209
RWRIN

WEATHER ROUNDUP FOR INDIANA
NATIONAL WEATHER SERVICE INDIANAPOLIS IN
900 PM EST MON FEB 08 2016

NOTE: "FAIR" INDICATES FEW OR NO CLOUDS BELOW 12,000 FEET WITH NO
SIGNIFICANT WEATHER AND/OR OBSTRUCTIONS TO VISIBILITY.

* - STATION DOES NOT REPORT WEATHER SUCH AS PRECIPITATION OR FOG.

+ - STATION NOT QUALITY CONTROLLED BY THE NATIONAL WEATHER SERVICE.
    USE DATA WITH CAUTION...ESPECIALLY DEWPOINT AND RELATIVE
    HUMIDITY OBSERVATIONS.

INZ001>003-010>013-019-020-090300-
NORTHWEST INDIANA

CITY           SKY/WX    TMP DP  RH WIND       PRES   REMARKS
GARY /AIRPORT/ CLOUDY    28  19  69 W16       29.75S WCI  17
KNOX *+        CLOUDY    28  23  80 W13       29.73R WCI  18
LA PORTE +     LGT SNOW  29  27  91 W6        29.72S WCI  23
MICHIGAN CITY+ LGT SNOW  28  27  93 W8        29.73S WCI  20
MONTICELLO +   CLOUDY    25  18  74 W12       29.75S WCI  14
RENSSELAER +   CLOUDY    27  19  74 W12       29.76S WCI  16
VALPARAISO     CLOUDY    28  22  78 W10       29.72F WCI  19

$$

LMZ046-743>745-090300-
SOUTHERN LAKE MICHIGAN

STATION/POSITION TIME  TEMP    WIND        PRES    WAVE
                       AIR SEA DIR/SP/G            HT
                 (UTC) (F)     (DEG/KT/KT) (MB)    (FT)
BURNS HARBOR     0100   29     290/ 15/ 18 1007.5S
MICHIGAN CITY    0100   28     250/ 17/ 19   N/A

$$

INZ004-005-014>016-021>024-090300-
NORTH CENTRAL INDIANA

CITY           SKY/WX    TMP DP  RH WIND       PRES   REMARKS
ELKHART        LGT SNOW  28  27  93 W12       29.69F WCI  18
GOSHEN         LGT SNOW  28  25  88 W14       29.68S FOG     WCI  17
LOGANSPORT +   CLOUDY    27  19  74 W13G18    29.74F WCI  16
PERU/GRISSOM   LGT SNOW  25  21  86 W14       29.71S FOG     WCI  13
ROCHESTER +    CLOUDY    30  21  69 W7        29.72S WCI  23
SOUTH BEND     LGT SNOW  27  25  92 W10       29.70S VSB 1   WCI  17
WARSAW +       FLURRIES  28  23  80 W14       29.69S WCI  17

$$

INZ006>009-017-018-025>027-090300-
NORTHEAST INDIANA

CITY           SKY/WX    TMP DP  RH WIND       PRES   REMARKS
ANGOLA *+      CLOUDY    30  28  93 W9        29.63F WCI  22
AUBURN +       LGT SNOW  32  27  80 W15       29.66S WCI  22
FORT WAYNE     FLURRIES  28  25  88 W16       29.69R WCI  16
HUNTINGTON +   LGT SNOW  26  21  83 W15G22    29.70S WCI  13

$$

INZ028-029-035-036-043>045-051>053-090300-
WEST CENTRAL INDIANA

CITY           SKY/WX    TMP DP  RH WIND       PRES   REMARKS
GREENCASTLE +  CLOUDY    21  12  68 W8        29.80F WCI  12
LAFAYETTE      CLOUDY    23  17  78 W17       29.78S WCI   9
TERRE HAUTE    CLOUDY    21  15  78 W12       29.84F WCI   9

$$

INZ030>032-037>040-046>048-054>057-064-065-090300-
CENTRAL INDIANA

CITY           SKY/WX    TMP DP  RH WIND       PRES   REMARKS
COLUMBUS       FLURRIES  25  19  80 W12       29.80S WCI  14
FISHERS *+     CLOUDY    21  18  86 W9G17     29.77S WCI  11
FRANKFORT +    MOCLDY    24  16  71 W15       29.77S WCI  11
GREENWOOD *+   CLOUDY    25  19  80 W10G20    29.78R WCI  15
INDIANAPOLIS   FLURRIES  22  16  78 W13       29.77S WCI  10
-EAGLE CREEK   CLOUDY    22  16  78 W13       29.77S WCI  10
KOKOMO *+      CLOUDY    27  18  69 W16G22    29.73S WCI  14
MARION +       CLOUDY    25  16  69 W17       29.73S WCI  12
MT COMFORT *+  CLOUDY    23  18  80 W17       29.76S WCI   9
SHELBYVILLE    CLOUDY    25  17  72 W16       29.76S WCI  12
ZIONSVILLE +   CLOUDY    22  17  81 W13G20    29.76S WCI   9

$$

INZ033-034-041-042-049-050-058-059-090300-
EAST CENTRAL INDIANA

CITY           SKY/WX    TMP DP  RH WIND       PRES   REMARKS
MUNCIE         CLOUDY    26  20  77 W16       29.72R WCI  14

$$

INZ060-061-067>069-081>083-085>088-090300-
SOUTHWEST INDIANA

CITY           SKY/WX    TMP DP  RH WIND       PRES   REMARKS
EVANSVILLE     LGT SNOW  25  17  72 NW9       29.91S WCI  15
HUNTINGBURG *+ CLOUDY    21  16  79 NW20G28   29.89R WCI   6
WASHINGTON +   FLURRIES  21  17  84 NW13      29.87S WCI   9

$$

INZ062-063-066-070>080-084-089>092-090300-
SOUTH CENTRAL AND SOUTHEAST INDIANA

CITY           SKY/WX    TMP DP  RH WIND       PRES   REMARKS
BEDFORD +      LGT SNOW  21  19  93 W7        29.82S WCI  13
BLOOMINGTON    FLURRIES  21  16  81 W10       29.80S WCI  10
MADISON *+     CLOUDY    27  21  80 W10       29.80S WCI  17
NORTH VERNON + FLURRIES  25  25 100 W5        29.79R WCI  19
SEYMOUR +      LGT SNOW  27  19  74 W7        29.81S WCI  19

$$




USA.gov is the U.S. government's official web portal to all federal, state and local government web resources and services.